| time (UTC) | temp C | wind direction | speed KPH | gust KPH | rain 1hr cm | rain 24hr cm | rain mn cm | humidity % | barometer mb |
| 20260505065737 | 20 | 250 | 1.6 | 6.4 | 0.00 | 0.00 | 0.00 | 88 | 1010.8 |
| 20260505065234 | 20 | 267 | 3.2 | 4.8 | 0.00 | 0.00 | 0.00 | 87 | 1010.9 |
| 20260505064731 | 20 | 277 | 1.6 | 4.8 | 0.00 | 0.00 | 0.00 | 87 | 1010.9 |
| 20260505064229 | 20 | 221 | 3.2 | 4.8 | 0.00 | 0.00 | 0.00 | 87 | 1011.0 |
| 20260505063727 | 20 | 279 | 3.2 | 3.2 | 0.00 | 0.00 | 0.00 | 87 | 1010.9 |
| 20260505063222 | 20 | 286 | 0.0 | 6.4 | 0.00 | 0.00 | 0.00 | 87 | 1011.0 |
| 20260505062719 | 20 | 261 | 1.6 | 6.4 | 0.00 | 0.00 | 0.00 | 86 | 1011.3 |
| 20260505062217 | 20 | 216 | 1.6 | 8.0 | 0.00 | 0.00 | 0.00 | 86 | 1011.4 |
| 20260505061714 | 20 | 304 | 1.6 | 4.8 | 0.00 | 0.00 | 0.00 | 86 | 1011.2 |
| 20260505061212 | 20 | 293 | 1.6 | 6.4 | 0.00 | 0.00 | 0.00 | 86 | 1011.4 |
| 20260505060709 | 20 | 184 | 1.6 | 6.4 | 0.00 | 0.00 | 0.00 | 86 | 1011.6 |
| 20260505060206 | 20 | 227 | 6.4 | 6.4 | 0.00 | 0.00 | 0.00 | 86 | 1011.3 |
| 20260505055701 | 20 | 182 | 3.2 | 6.4 | 0.00 | 0.00 | 0.00 | 85 | 1011.3 |
| 20260505055157 | 20 | 201 | 3.2 | 8.0 | 0.00 | 0.00 | 0.00 | 85 | 1011.2 |
| 20260505054655 | 20 | 230 | 0.0 | 4.8 | 0.00 | 0.00 | 0.00 | 85 | 1011.3 |
| 20260505054152 | 20 | 258 | 0.0 | 4.8 | 0.00 | 0.00 | 0.00 | 85 | 1011.3 |
| 20260505053650 | 20 | 213 | 3.2 | 6.4 | 0.00 | 0.00 | 0.00 | 85 | 1011.6 |
| 20260505053146 | 20 | 255 | 1.6 | 6.4 | 0.00 | 0.00 | 0.00 | 85 | 1011.6 |
| 20260505052643 | 20 | 276 | 3.2 | 3.2 | 0.00 | 0.00 | 0.00 | 85 | 1011.4 |
| 20260505052140 | 20 | 290 | 0.0 | 4.8 | 0.00 | 0.00 | 0.00 | 84 | 1011.5 |
| 20260505051637 | 20 | 215 | 4.8 | 4.8 | 0.00 | 0.00 | 0.00 | 85 | 1011.7 |
| 20260505051136 | 20 | 187 | 4.8 | 6.4 | 0.00 | 0.00 | 0.00 | 84 | 1011.5 |
| 20260505050633 | 21 | 214 | 4.8 | 4.8 | 0.00 | 0.00 | 0.00 | 84 | 1011.5 |
| 20260505050131 | 21 | 159 | 0.0 | 3.2 | 0.00 | 0.00 | 0.00 | 84 | 1011.7 |
| 20260505041601 | 21 | 226 | 6.4 | 6.4 | 0.00 | 0.00 | 0.00 | 83 | 1011.7 |
| 20260505041059 | 21 | 139 | 3.2 | 9.7 | 0.00 | 0.00 | 0.00 | 83 | 1011.9 |
| 20260505040556 | 21 | 232 | 3.2 | 4.8 | 0.00 | 0.00 | 0.00 | 82 | 1012.1 |
| 20260505040053 | 21 | 216 | 3.2 | 8.0 | 0.00 | 0.00 | 0.00 | 82 | 1012.2 |
| 20260505035549 | 21 | 222 | 4.8 | 6.4 | 0.00 | 0.00 | 0.00 | 82 | 1012.0 |
| 20260505035046 | 21 | 208 | 6.4 | 6.4 | 0.00 | 0.00 | 0.00 | 82 | 1012.3 |
| 20260505034542 | 21 | 212 | 3.2 | 6.4 | 0.00 | 0.00 | 0.00 | 82 | 1012.1 |
| 20260505034039 | 21 | 283 | 3.2 | 8.0 | 0.00 | 0.00 | 0.00 | 82 | 1012.2 |
| 20260505033536 | 21 | 236 | 3.2 | 6.4 | 0.00 | 0.00 | 0.00 | 82 | 1012.2 |
| 20260505033034 | 21 | 271 | 3.2 | 6.4 | 0.00 | 0.00 | 0.00 | 82 | 1012.2 |
| 20260505032532 | 21 | 212 | 6.4 | 9.7 | 0.00 | 0.00 | 0.00 | 81 | 1011.9 |
| 20260505032028 | 21 | 243 | 1.6 | 6.4 | 0.00 | 0.00 | 0.00 | 81 | 1011.9 |
| 20260505031526 | 21 | 118 | 3.2 | 6.4 | 0.00 | 0.00 | 0.00 | 81 | 1012.1 |
| 20260505031022 | 21 | 164 | 1.6 | 8.0 | 0.00 | 0.00 | 0.00 | 81 | 1012.1 |
| 20260505030519 | 21 | 163 | 4.8 | 6.4 | 0.00 | 0.00 | 0.00 | 81 | 1012.0 |
| 20260505030015 | 21 | 265 | 0.0 | 8.0 | 0.00 | 0.00 | 0.00 | 81 | 1012.1 |
| 20260505025510 | 21 | 343 | 3.2 | 8.0 | 0.00 | 0.00 | 0.00 | 80 | 1012.2 |
| 20260505025010 | 21 | 206 | 4.8 | 6.4 | 0.00 | 0.00 | 0.00 | 80 | 1011.8 |
| 20260505024506 | 21 | 230 | 3.2 | 4.8 | 0.00 | 0.00 | 0.00 | 80 | 1012.2 |
| 20260505024004 | 21 | 224 | 6.4 | 6.4 | 0.00 | 0.00 | 0.00 | 80 | 1012.0 |
| 20260505023500 | 21 | 140 | 3.2 | 9.7 | 0.00 | 0.00 | 0.00 | 79 | 1011.9 |
| 20260505022957 | 21 | 233 | 3.2 | 6.4 | 0.00 | 0.00 | 0.00 | 79 | 1012.1 |
| 20260505022455 | 21 | 173 | 0.0 | 4.8 | 0.00 | 0.00 | 0.00 | 79 | 1012.4 |
| 20260505021952 | 21 | 205 | 4.8 | 6.4 | 0.00 | 0.00 | 0.00 | 78 | 1012.2 |
| 20260505021449 | 21 | 235 | 3.2 | 9.7 | 0.00 | 0.00 | 0.00 | 78 | 1012.1 |
| 20260505020944 | 21 | 270 | 3.2 | 8.0 | 0.00 | 0.00 | 0.00 | 78 | 1011.8 |
| 20260505020439 | 21 | 297 | 3.2 | 8.0 | 0.00 | 0.00 | 0.00 | 77 | 1012.0 |
| 20260505015937 | 21 | 253 | 4.8 | 6.4 | 0.00 | 0.00 | 0.00 | 77 | 1011.8 |
| 20260505015434 | 21 | 193 | 4.8 | 8.0 | 0.00 | 0.00 | 0.00 | 76 | 1011.9 |
| 20260505014931 | 22 | 98 | 3.2 | 8.0 | 0.00 | 0.00 | 0.00 | 76 | 1011.9 |
| 20260505014428 | 22 | 193 | 8.0 | 9.7 | 0.00 | 0.00 | 0.00 | 75 | 1012.1 |
| 20260505013925 | 22 | 194 | 6.4 | 11.3 | 0.00 | 0.00 | 0.00 | 75 | 1011.5 |
| 20260505013422 | 22 | 198 | 4.8 | 8.0 | 0.00 | 0.00 | 0.00 | 74 | 1011.9 |
| 20260505012920 | 22 | 184 | 6.4 | 6.4 | 0.00 | 0.00 | 0.00 | 74 | 1011.7 |
| 20260505012418 | 22 | 232 | 4.8 | 8.0 | 0.00 | 0.00 | 0.00 | 73 | 1011.6 |
| 20260505011914 | 22 | 236 | 3.2 | 6.4 | 0.00 | 0.00 | 0.00 | 73 | 1012.0 |
| 20260505011410 | 22 | 215 | 1.6 | 8.0 | 0.00 | 0.00 | 0.00 | 73 | 1011.7 |
| 20260505010907 | 22 | 234 | 4.8 | 8.0 | 0.00 | 0.00 | 0.00 | 72 | 1011.9 |
| 20260505010403 | 22 | 269 | 4.8 | 6.4 | 0.00 | 0.00 | 0.00 | 72 | 1011.7 |
| 20260505005859 | 22 | 234 | 4.8 | 9.7 | 0.00 | 0.00 | 0.00 | 71 | 1011.8 |
| 20260505005356 | 23 | 163 | 3.2 | 9.7 | 0.00 | 0.00 | 0.00 | 70 | 1011.9 |
| 20260505004854 | 23 | 228 | 6.4 | 9.7 | 0.00 | 0.00 | 0.00 | 70 | 1011.7 |
| 20260505004349 | 23 | 186 | 6.4 | 9.7 | 0.00 | 0.00 | 0.00 | 69 | 1011.9 |
| 20260505003847 | 23 | 209 | 6.4 | 9.7 | 0.00 | 0.00 | 0.00 | 69 | 1012.0 |
| 20260505003344 | 23 | 180 | 4.8 | 9.7 | 0.00 | 0.00 | 0.00 | 69 | 1011.8 |
| 20260505002840 | 23 | 154 | 3.2 | 12.9 | 0.00 | 0.00 | 0.00 | 68 | 1011.8 |
| 20260505002337 | 23 | 205 | 8.0 | 9.7 | 0.00 | 0.00 | 0.00 | 68 | 1012.0 |
| 20260505001836 | 23 | 164 | 6.4 | 11.3 | 0.00 | 0.00 | 0.00 | 66 | 1011.8 |
| 20260505001332 | 23 | 322 | 3.2 | 8.0 | 0.00 | 0.00 | 0.00 | 66 | 1011.7 |
| 20260505000829 | 23 | 172 | 4.8 | 11.3 | 0.00 | 0.00 | 0.00 | 65 | 1011.8 |
| 20260505000327 | 23 | 164 | 6.4 | 8.0 | 0.00 | 0.00 | 0.00 | 65 | 1011.8 |
| 20260504235824 | 23 | 147 | 4.8 | 6.4 | 0.00 | 0.00 | 0.00 | 66 | 1011.8 |
| 20260504235321 | 24 | 153 | 4.8 | 17.7 | 0.00 | 0.00 | 0.00 | 65 | 1012.3 |
| 20260504234817 | 24 | 242 | 3.2 | 16.1 | 0.00 | 0.00 | 0.00 | 65 | 1012.1 |
| 20260504234315 | 24 | 132 | 4.8 | 6.4 | 0.00 | 0.00 | 0.00 | 64 | 1012.3 |
| 20260504233811 | 24 | 203 | 3.2 | 14.5 | 0.00 | 0.00 | 0.00 | 62 | 1012.3 |
| 20260504233307 | 24 | 241 | 6.4 | 14.5 | 0.00 | 0.00 | 0.00 | 63 | 1012.3 |
| 20260504232804 | 25 | 142 | 4.8 | 20.9 | 0.00 | 0.00 | 0.00 | 62 | 1012.3 |
| 20260504232301 | 25 | 185 | 16.1 | 16.1 | 0.00 | 0.00 | 0.00 | 62 | 1012.6 |
| 20260504231758 | 25 | 180 | 8.0 | 12.9 | 0.00 | 0.00 | 0.00 | 62 | 1012.6 |
| 20260504231254 | 25 | 249 | 6.4 | 12.9 | 0.00 | 0.00 | 0.00 | 60 | 1012.5 |
| 20260504230750 | 25 | 199 | 8.0 | 12.9 | 0.00 | 0.00 | 0.00 | 60 | 1012.3 |
| 20260504230248 | 25 | 107 | 9.7 | 17.7 | 0.00 | 0.00 | 0.00 | 61 | 1012.3 |
| 20260504225747 | 25 | 22 | 4.8 | 11.3 | 0.00 | 0.00 | 0.00 | 62 | 1012.8 |
| 20260504225243 | 25 | 229 | 8.0 | 12.9 | 0.00 | 0.00 | 0.00 | 60 | 1012.5 |
| 20260504224740 | 25 | 262 | 6.4 | 16.1 | 0.00 | 0.00 | 0.00 | 60 | 1012.7 |
| 20260504224237 | 25 | 178 | 3.2 | 16.1 | 0.00 | 0.00 | 0.00 | 61 | 1012.6 |
| 20260504223734 | 25 | 253 | 3.2 | 14.5 | 0.00 | 0.00 | 0.00 | 60 | 1012.7 |
| 20260504223229 | 25 | 232 | 8.0 | 9.7 | 0.00 | 0.00 | 0.00 | 60 | 1012.8 |
| 20260504222726 | 25 | 294 | 3.2 | 14.5 | 0.00 | 0.00 | 0.00 | 59 | 1012.8 |
| 20260504222223 | 25 | 219 | 3.2 | 9.7 | 0.00 | 0.00 | 0.00 | 60 | 1012.8 |
| 20260504221720 | 25 | 154 | 12.9 | 12.9 | 0.00 | 0.00 | 0.00 | 60 | 1012.6 |
| 20260504221217 | 25 | 149 | 3.2 | 19.3 | 0.00 | 0.00 | 0.00 | 59 | 1012.5 |
| 20260504220714 | 25 | 264 | 6.4 | 16.1 | 0.00 | 0.00 | 0.00 | 58 | 1012.7 |
| 20260504220211 | 25 | 210 | 8.0 | 8.0 | 0.00 | 0.00 | 0.00 | 59 | 1012.8 |
| 20260504215707 | 25 | 187 | 6.4 | 14.5 | 0.00 | 0.00 | 0.00 | 58 | 1012.9 |
| 20260504215205 | 25 | 158 | 6.4 | 12.9 | 0.00 | 0.00 | 0.00 | 58 | 1013.3 |
| 20260504214700 | 26 | 184 | 4.8 | 11.3 | 0.00 | 0.00 | 0.00 | 57 | 1013.2 |
| 20260504214157 | 26 | 202 | 1.6 | 9.7 | 0.00 | 0.00 | 0.00 | 58 | 1013.2 |
| 20260504213654 | 26 | 154 | 4.8 | 9.7 | 0.00 | 0.00 | 0.00 | 59 | 1013.3 |
| 20260504213150 | 25 | 223 | 4.8 | 16.1 | 0.00 | 0.00 | 0.00 | 58 | 1013.1 |
| 20260504212647 | 25 | 172 | 11.3 | 16.1 | 0.00 | 0.00 | 0.00 | 57 | 1013.1 |
| 20260504212144 | 25 | 181 | 14.5 | 17.7 | 0.00 | 0.00 | 0.00 | 57 | 1013.2 |
| 20260504211641 | 26 | 155 | 8.0 | 9.7 | 0.00 | 0.00 | 0.00 | 56 | 1013.4 |
| 20260504211137 | 26 | 200 | 6.4 | 12.9 | 0.00 | 0.00 | 0.00 | 57 | 1013.5 |
| 20260504210635 | 26 | 107 | 4.8 | 11.3 | 0.00 | 0.00 | 0.00 | 57 | 1013.5 |
| 20260504210131 | 26 | 304 | 9.7 | 14.5 | 0.00 | 0.00 | 0.00 | 56 | 1013.5 |
| 20260504205629 | 26 | 217 | 3.2 | 9.7 | 0.00 | 0.00 | 0.00 | 57 | 1013.6 |
| 20260504205126 | 26 | 182 | 8.0 | 20.9 | 0.00 | 0.00 | 0.00 | 56 | 1013.7 |
| 20260504204625 | 26 | 210 | 6.4 | 14.5 | 0.00 | 0.00 | 0.00 | 55 | 1013.9 |
| 20260504204123 | 26 | 192 | 3.2 | 17.7 | 0.00 | 0.00 | 0.00 | 57 | 1014.0 |
| 20260504203622 | 26 | 150 | 6.4 | 14.5 | 0.00 | 0.00 | 0.00 | 56 | 1013.5 |
| 20260504203120 | 25 | 196 | 4.8 | 8.0 | 0.00 | 0.00 | 0.00 | 56 | 1014.0 |
| 20260504202619 | 25 | 195 | 6.4 | 12.9 | 0.00 | 0.00 | 0.00 | 57 | 1013.9 |
| 20260504202116 | 25 | 150 | 6.4 | 12.9 | 0.00 | 0.00 | 0.00 | 57 | 1014.0 |
| 20260504201613 | 26 | 167 | 8.0 | 14.5 | 0.00 | 0.00 | 0.00 | 55 | 1014.2 |
| 20260504201111 | 25 | 151 | 6.4 | 11.3 | 0.00 | 0.00 | 0.00 | 59 | 1014.4 |
| 20260504200608 | 26 | 102 | 9.7 | 16.1 | 0.00 | 0.00 | 0.00 | 57 | 1014.4 |
| 20260504200104 | 26 | 206 | 6.4 | 14.5 | 0.00 | 0.00 | 0.00 | 56 | 1014.5 |
| 20260504195600 | 26 | 154 | 9.7 | 16.1 | 0.00 | 0.00 | 0.00 | 55 | 1014.7 |
| 20260504195057 | 25 | 229 | 3.2 | 12.9 | 0.00 | 0.00 | 0.00 | 55 | 1014.8 |
| 20260504194554 | 26 | 190 | 8.0 | 16.1 | 0.00 | 0.00 | 0.00 | 55 | 1014.9 |
| 20260504194049 | 26 | 223 | 4.8 | 9.7 | 0.00 | 0.00 | 0.00 | 55 | 1014.8 |
| 20260504193546 | 26 | 213 | 4.8 | 12.9 | 0.00 | 0.00 | 0.00 | 54 | 1014.9 |
| 20260504193045 | 26 | 172 | 6.4 | 17.7 | 0.00 | 0.00 | 0.00 | 56 | 1014.9 |
| 20260504192543 | 26 | 150 | 9.7 | 17.7 | 0.00 | 0.00 | 0.00 | 58 | 1014.8 |
| 20260504192040 | 25 | 262 | 4.8 | 14.5 | 0.00 | 0.00 | 0.00 | 55 | 1015.0 |
| 20260504191538 | 26 | 177 | 4.8 | 14.5 | 0.00 | 0.00 | 0.00 | 54 | 1014.9 |
| 20260504191034 | 26 | 125 | 3.2 | 14.5 | 0.00 | 0.00 | 0.00 | 55 | 1015.0 |
| 20260504190531 | 26 | 198 | 8.0 | 11.3 | 0.00 | 0.00 | 0.00 | 52 | 1015.0 |
| 20260504190026 | 25 | 237 | 3.2 | 9.7 | 0.00 | 0.00 | 0.00 | 55 | 1015.2 |
| 20260504185524 | 25 | 205 | 6.4 | 17.7 | 0.00 | 0.00 | 0.00 | 55 | 1015.2 |
| 20260504185020 | 26 | 226 | 8.0 | 11.3 | 0.00 | 0.00 | 0.00 | 55 | 1015.4 |
| 20260504184515 | 26 | 244 | 8.0 | 17.7 | 0.00 | 0.00 | 0.00 | 53 | 1015.3 |
| 20260504184011 | 25 | 168 | 4.8 | 9.7 | 0.00 | 0.00 | 0.00 | 60 | 1015.5 |
| 20260504183509 | 26 | 300 | 4.8 | 17.7 | 0.00 | 0.00 | 0.00 | 55 | 1015.6 |
| 20260504183007 | 26 | 153 | 6.4 | 14.5 | 0.00 | 0.00 | 0.00 | 53 | 1015.6 |
| 20260504182503 | 25 | 251 | 0.0 | 12.9 | 0.00 | 0.00 | 0.00 | 56 | 1015.8 |
| 20260504182000 | 25 | 173 | 17.7 | 19.3 | 0.00 | 0.00 | 0.00 | 56 | 1015.8 |
| 20260504181457 | 26 | 160 | 3.2 | 9.7 | 0.00 | 0.00 | 0.00 | 56 | 1015.6 |
| 20260504180956 | 25 | 193 | 8.0 | 14.5 | 0.00 | 0.00 | 0.00 | 55 | 1015.9 |
| 20260504180455 | 25 | 229 | 9.7 | 11.3 | 0.00 | 0.00 | 0.00 | 55 | 1015.8 |
| 20260504175952 | 26 | 248 | 3.2 | 20.9 | 0.00 | 0.00 | 0.00 | 55 | 1015.6 |
| 20260504175449 | 26 | 198 | 8.0 | 12.9 | 0.00 | 0.00 | 0.00 | 55 | 1015.9 |
| 20260504174947 | 25 | 270 | 8.0 | 16.1 | 0.00 | 0.00 | 0.00 | 54 | 1015.9 |
| 20260504174444 | 25 | 191 | 4.8 | 9.7 | 0.00 | 0.00 | 0.00 | 54 | 1016.1 |
| 20260504173941 | 25 | 237 | 9.7 | 11.3 | 0.00 | 0.00 | 0.00 | 55 | 1016.3 |
| 20260504173437 | 26 | 203 | 4.8 | 12.9 | 0.00 | 0.00 | 0.00 | 55 | 1016.1 |
| 20260504172936 | 25 | 137 | 11.3 | 17.7 | 0.00 | 0.00 | 0.00 | 55 | 1016.1 |
| 20260504172431 | 25 | 249 | 8.0 | 11.3 | 0.00 | 0.00 | 0.00 | 57 | 1016.4 |
| 20260504171928 | 25 | 287 | 8.0 | 11.3 | 0.00 | 0.00 | 0.00 | 55 | 1016.3 |
| 20260504171425 | 26 | 214 | 11.3 | 20.9 | 0.00 | 0.00 | 0.00 | 54 | 1016.4 |
| 20260504170922 | 25 | 242 | 9.7 | 12.9 | 0.00 | 0.00 | 0.00 | 55 | 1016.2 |
| 20260504170418 | 25 | 226 | 6.4 | 9.7 | 0.00 | 0.00 | 0.00 | 58 | 1016.2 |
| 20260504160337 | 24 | 215 | 6.4 | 12.9 | 0.00 | 0.00 | 0.00 | 56 | 1017.1 |
| 20260504150802 | 23 | 133 | 6.4 | 19.3 | 0.00 | 0.00 | 0.00 | 59 | 1017.3 |
| 20260504150258 | 23 | 269 | 4.8 | 12.9 | 0.00 | 0.00 | 0.00 | 59 | 1017.2 |
| 20260504141229 | 21 | 209 | 6.4 | 9.7 | 0.00 | 0.00 | 0.00 | 63 | 1017.3 |
| 20260504140725 | 21 | 209 | 1.6 | 6.4 | 0.00 | 0.00 | 0.00 | 62 | 1017.1 |
| 20260504140220 | 21 | 168 | 6.4 | 8.0 | 0.00 | 0.00 | 0.00 | 62 | 1017.2 |
| 20260504130649 | 17 | 261 | 4.8 | 6.4 | 0.00 | 0.00 | 0.00 | 75 | 1017.1 |
| 20260504130145 | 17 | 219 | 3.2 | 3.2 | 0.00 | 0.00 | 0.00 | 78 | 1017.1 |
| 20260504120110 | 13 | 331 | 0.0 | 3.2 | 0.00 | 0.00 | 0.00 | 91 | 1016.5 |
| 20260504110537 | 13 | 308 | 3.2 | 4.8 | 0.00 | 0.00 | 0.00 | 89 | 1016.7 |
| 20260504100459 | 13 | 319 | 1.6 | 3.2 | 0.00 | 0.00 | 0.00 | 86 | 1016.5 |
| 20260504081852 | 14 | 291 | 3.2 | 3.2 | 0.00 | 0.00 | 0.00 | 84 | 1017.1 |
| 20260504081349 | 14 | 302 | 3.2 | 4.8 | 0.00 | 0.00 | 0.00 | 84 | 1017.3 |
| 20260504080844 | 14 | 333 | 3.2 | 3.2 | 0.00 | 0.00 | 0.00 | 84 | 1017.3 |
| 20260504080342 | 14 | 341 | 3.2 | 3.2 | 0.00 | 0.00 | 0.00 | 84 | 1017.3 |
| 20260504070309 | 15 | 330 | 3.2 | 4.8 | 0.00 | 0.00 | 0.00 | 81 | 1017.8 |